STARLINK-37579, 69843

Orbit data source: Space-Track

STARLINK-37579, 69843 is a payload satellite owned by SpaceX/Seattle (US) in LEO that was launched on Sun, 05 Jul 2026 UTC via an FALCON 9 launch vehicle from the Air Force Eastern Test Range (AFETR). Payload-class satellites include a variety of spacecraft equipped with specific instruments for various scientific and technological missions. These include communications satellites like Starlink; space stations such as the ISS; scientific satellites like the Hubble; Earth observation satellites from companies like Planet Labs, Umbra, and HawkEye 360; GPS; miniature CubeSats for education and research; and military/defense satellites.

Loading next visibility...
Identifier
69843, 2026-154AA
Orbit
LEO
Country
Flag of USUS
Related business
Manufacturer
SpaceX/Seattle
Mission
Operational spacecraft
Bus & Motor
STARLINK V2MO, Unknown motor
Mass
575 kg wet, ~530 kg dry
Launch date (UTC)
2026-07-05 (2 months ago)
Launch vehicle
FALCON 9
Launch site
Air Force Eastern Test Range (AFETR)
Object type
Payload
Rocket body
Debris
Shape & HBR
BOX + PAN, 17.7 m
Radar Cross Section
Large (>1 m²)

Expand to show TLE details & history
Last TLE update: 1 day ago

TLE from 1 day ago
0 STARLINK-37579
1 69843U 26154AA  26235.94134812 -.00083602  00000-0 -24282-2 0  9999
2 69843  53.1593 100.7767 0003580 311.5380  48.5316 15.35186983  9008
Epoch: 2026-08-23T22:35Z
TLE epoch observation values (Epoch: 2026-08-23T22:35:32.477Z)
Latitude
0.00001°
Longitude
149.66121°
Altitude
459.646 km
Speed
7.639 km/s
True Right ascension
06h 43m 06s
True Declination
0° 00' 00"
Sunlit
Object was in daylight at epoch
Visualization orbit readout
Latitude
Unknown
Longitude
Unknown
Altitude
Unknown
Speed
Unknown
Apparent Right ascension
Unknown
Apparent Declination
Unknown
Sunlit
N/A
Visualization observer readout
Local Sidereal Time
13:47:10
Azimuth
Unknown
Elevation
Unknown
Doppler factor
Unknown
Orbital elements
Apogee altitude
463.071 km
Perigee altitude
458.174 km
Semi-major axis
6,838.759 km
Eccentricity
0.00036
Inclination
53.1593°
RAAN
100.7767°
Arg. of periapsis
311.538°
True anomaly
48.56235°
Mean anomaly
48.5316°
Eccentric anomaly
48.54697°
Mean motion
3.83775 °/min
Orbital period
93.8 mins
BSTAR
-0.0024282
Loading maneuver chart data...
Computing Atmospheric mass density...
Loading historical data...
Loading historical data...
Loading historical data...
Loading historical data...
Loading historical data...
Loading historical data...
Loading historical data...

Documentation

Showing up to 5 results
|